DATE,TIME,WSPD,WD,GST,ATMP,WTMP,BARO,DEPTH,AWVHT,MWVHT,WVHT,APD,, - WTMP - 11 June 2009
11/06/2009,00:00,6,234,17.4,13.1,16,1009.8,3.53,0.02,0.02,-1000,-1000,,
11/06/2009,00:05,7,244,13.7,13.1,16,1010,3.6,0.02,0.02,-1000,-1000,,
11/06/2009,00:10,4.8,195,9.2,13.1,16,1010.1,3.66,0.03,0.04,-1000,-1000,,
11/06/2009,00:15,2.3,195,9.2,13.1,16,1010.1,3.72,0.03,0.02,-1000,-1000,,
11/06/2009,00:20,2.3,153,6.5,12.8,16,1010.1,3.79,0.02,0.03,-1000,-1000,,
11/06/2009,00:25,2.4,142,4.7,12.8,16,1010.1,3.85,0.02,0.03,-1000,-1000,,
11/06/2009,00:30,2.7,119,6.3,12.6,15.9,1010.2,3.9,0.03,0.03,-1000,-1000,,
11/06/2009,00:35,2.3,123,3.9,12.6,15.9,1010.3,3.95,0.02,0.03,-1000,-1000,,
11/06/2009,00:40,2,121,3.7,12.4,15.9,1010.4,4.01,0.02,0.02,-1000,-1000,,
11/06/2009,00:45,2.2,111,3.6,12.4,15.9,1010.6,4.05,0.02,0.02,-1000,-1000,,
11/06/2009,00:50,2.6,129,8.4,12.5,15.9,1010.6,4.09,0.02,0.02,-1000,-1000,,
11/06/2009,00:55,3.4,155,9.6,12.4,15.9,1010.7,4.14,0.02,0.02,-1000,-1000,,
11/06/2009,01:00,3.2,109,5.1,12.5,15.9,1010.8,4.18,0.01,0.02,-1000,-1000,,
11/06/2009,01:05,3.3,90,4.6,12.3,15.9,1010.8,4.2,0.01,0.01,-1000,-1000,,
11/06/2009,01:10,3.1,90,4.6,12.2,15.9,1010.8,4.22,0.01,0.01,-1000,-1000,,
11/06/2009,01:15,3,99,4.1,12.1,15.9,1011,4.25,0.01,0.02,-1000,-1000,,
11/06/2009,01:20,2.4,39,4.1,12.2,15.9,1011.1,4.26,0.01,0.01,-1000,-1000,,
11/06/2009,01:25,2.3,41,7.1,11.9,15.9,1011.2,4.27,0.01,0.01,-1000,-1000,,
11/06/2009,01:30,2,94,4.1,12,15.9,1011.1,4.28,0.02,0.02,-1000,-1000,,
11/06/2009,01:35,1.8,115,2.9,11.9,15.9,1011.3,4.28,0.01,0.01,-1000,-1000,,
11/06/2009,01:40,1.8,113,3.2,11.8,15.9,1011.3,4.28,0.01,0.01,-1000,-1000,,
11/06/2009,01:45,2.3,88,8.1,12,16,1011.3,4.28,0.01,0.01,-1000,-1000,,
11/06/2009,01:50,2.6,88,8.1,12,16,1011.4,4.28,0.01,0.01,-1000,-1000,,
11/06/2009,01:55,2.1,88,8.1,11.8,16,1011.5,4.28,0.01,0.01,-1000,-1000,,
11/06/2009,02:00,2,113,7.2,11.8,16,1011.6,4.27,0.01,0.01,-1000,-1000,,
11/06/2009,02:05,2.1,128,3.5,11.7,16,1011.7,4.26,0.01,0.01,-1000,-1000,,
11/06/2009,02:10,2.4,108,6.7,11.7,16,1011.8,4.26,0.01,0.01,-1000,-1000,,
11/06/2009,02:15,2.3,105,3.7,11.7,16,1011.8,4.24,0.01,0.01,-1000,-1000,,
11/06/2009,02:20,2.5,101,5.2,11.7,16,1011.9,4.23,0.01,0.01,-1000,-1000,,
11/06/2009,02:25,2.6,81,4,11.5,16,1012,4.22,0.01,0.01,-1000,-1000,,
11/06/2009,02:30,2.5,81,4,11.6,16,1012.1,4.21,0.01,0.01,-1000,-1000,,
11/06/2009,02:35,2.4,93,4,11.6,16,1012.2,4.2,0.01,0.01,-1000,-1000,,
11/06/2009,02:40,2.7,93,4,11.5,16,1012.2,4.19,0.01,0.01,-1000,-1000,,
11/06/2009,02:45,2.5,93,4,11.5,16,1012.3,4.18,0.01,0.01,-1000,-1000,,
11/06/2009,02:50,2.7,110,3.8,11.5,16,1012.4,4.16,0.01,0.01,-1000,-1000,,
11/06/2009,02:55,2.8,110,3.8,11.4,16,1012.4,4.15,0.01,0.01,-1000,-1000,,
11/06/2009,03:00,2.7,109,4,11.3,16,1012.5,4.14,0.01,0.01,-1000,-1000,,
11/06/2009,03:05,2.5,114,3.7,11.4,16,1012.5,4.13,0.01,0.01,-1000,-1000,,
11/06/2009,03:10,2.5,114,3.7,11.4,16,1012.6,4.12,0.01,0.01,-1000,-1000,,
11/06/2009,03:15,2.5,144,7.6,11.4,16.1,1012.6,4.11,0.01,0.01,-1000,-1000,,
11/06/2009,03:20,5.2,234,13.7,11.4,16.1,1012.7,4.09,0.01,0.01,-1000,-1000,,
11/06/2009,03:25,4.6,216,13.4,11.6,16.1,N/A,4.08,0.01,0.01,-1000,-1000,,
11/06/2009,03:30,3.4,197,9.6,11.4,16.1,1012.7,4.07,0.01,0.02,-1000,-1000,,
11/06/2009,03:35,3.4,197,9.6,11.2,16.1,1012.8,4.05,0.01,0.03,-1000,-1000,,
11/06/2009,03:40,3.1,197,9.6,11.3,16.1,1012.9,4.04,0.03,0.04,-1000,-1000,,
11/06/2009,03:45,2.8,85,4.2,11.2,16,1012.9,4.02,0.03,0.02,-1000,-1000,,
11/06/2009,03:50,2.5,75,4.1,10.9,16,1013,4,0.01,0.02,-1000,-1000,,
11/06/2009,03:55,2.5,75,3.5,10.9,16,1013,3.98,0.01,0.02,-1000,-1000,,
11/06/2009,04:00,2.4,75,3.5,11.1,16.1,1013.1,3.96,0.02,0.04,-1000,-1000,,
11/06/2009,04:05,2.5,75,3.5,11.2,16,1013.2,3.93,0.03,0.03,-1000,-1000,,
11/06/2009,04:10,3,99,3.8,11.2,16,1013.3,3.9,0.02,0.02,-1000,-1000,,
11/06/2009,04:15,2.8,85,4.3,11.1,16,1013.4,3.85,0.02,0.02,-1000,-1000,,
11/06/2009,04:20,3.4,85,4.3,10.9,16,1013.5,3.82,0.02,0.03,-1000,-1000,,
11/06/2009,04:25,4.6,352,9.8,11,16,N/A,3.76,0.02,0.02,-1000,-1000,,
11/06/2009,04:30,4.8,343,11.4,11.3,16,1013.7,3.7,0.02,0.02,-1000,-1000,,
11/06/2009,04:35,5.1,343,11.4,11.4,16,1013.7,3.66,0.02,0.02,-1000,-1000,,
11/06/2009,04:40,5.1,343,11.4,11.4,16,1013.9,3.58,0.02,0.03,-1000,-1000,,
11/06/2009,04:45,2.8,343,11.4,11.4,16,1013.8,3.52,0.02,0.03,-1000,-1000,,
11/06/2009,04:50,2.8,343,11.4,11.3,16,1013.9,3.44,0.02,0.03,-1000,-1000,,
11/06/2009,04:55,6,351,12.4,11.6,16,1014,3.34,0.02,0.04,-1000,-1000,,
11/06/2009,05:00,8.6,324,12.1,11.7,16,1014.1,3.26,0.03,0.04,-1000,-1000,,
11/06/2009,05:05,8.7,324,11.9,11.9,16,1014.1,3.16,0.03,0.04,-1000,-1000,,
11/06/2009,05:10,7.3,324,11.9,12,16,1014.2,3.08,0.04,0.05,-1000,-1000,,
11/06/2009,05:15,7.4,328,12.6,12.1,16,1014.3,2.95,0.04,0.04,-1000,-1000,,
11/06/2009,05:20,8.8,328,13,12.3,16,1014.5,2.84,0.04,0.05,-1000,-1000,,
11/06/2009,05:25,8.2,327,12.2,12.1,15.9,1014.6,2.73,0.04,0.04,-1000,-1000,,
11/06/2009,05:30,6.7,327,12.2,12.2,15.9,1014.7,2.65,0.04,0.03,-1000,-1000,,
11/06/2009,05:35,4.9,327,12.2,12.1,15.9,1014.7,2.55,0.04,0.06,-1000,-1000,,
11/06/2009,05:40,3.5,327,12.2,12.2,15.9,1014.8,2.45,0.04,0.05,-1000,-1000,,
11/06/2009,05:45,2.8,34,10.1,12.1,15.9,1014.8,2.33,0.03,0.03,-1000,-1000,,
11/06/2009,05:50,2.2,78,4.7,11.7,15.9,1014.9,2.22,0.03,0.04,-1000,-1000,,
11/06/2009,05:55,1.7,68,2.9,11.6,15.9,1015,2.12,0.03,0.03,-1000,-1000,,
11/06/2009,06:00,2.3,106,3.4,11.7,15.9,1015.1,2.04,0.03,0.03,-1000,-1000,,
11/06/2009,06:05,2.3,119,4.9,11.8,15.9,1015.1,1.95,0.04,0.04,-1000,-1000,,
11/06/2009,06:10,2.4,119,4.9,11.7,16,1015.1,1.87,0.05,0.06,-1000,-1000,,
11/06/2009,06:15,2.4,119,4.9,11.7,16,1015.1,1.78,0.04,0.04,-1000,-1000,,
11/06/2009,06:20,2.3,125,7.5,11.8,16,1015.3,1.71,0.03,0.03,-1000,-1000,,
11/06/2009,06:25,2.5,125,7.5,11.7,16,1015.4,1.63,0.03,0.04,-1000,-1000,,
11/06/2009,06:30,2.4,106,8.1,11.6,16,1015.6,1.55,0.05,0.06,-1000,-1000,,
11/06/2009,06:35,2.6,106,8.1,11.7,16,1015.6,1.5,0.03,0.03,-1000,-1000,,
11/06/2009,06:40,3.1,101,4.8,11.8,16,1015.6,1.43,0.04,0.04,-1000,-1000,,
11/06/2009,06:45,2.5,107,4,11.8,16,1015.5,1.38,0.03,0.03,-1000,-1000,,
11/06/2009,06:50,2.8,107,4,11.8,16,1015.7,1.35,0.03,0.03,-1000,-1000,,
11/06/2009,06:55,3,106,4.2,11.9,16.1,1015.7,1.29,0.04,0.06,-1000,-1000,,
11/06/2009,07:00,2.8,109,4.4,12.1,16.1,1015.7,1.26,0.05,0.05,-1000,-1000,,
11/06/2009,07:05,2.5,113,4.2,12,16.1,1015.8,1.24,0.02,0.03,-1000,-1000,,
11/06/2009,07:10,6.5,266,12.6,12.1,16.1,1016,1.22,0.03,0.03,-1000,-1000,,
11/06/2009,07:15,9.4,266,12.6,12.3,16.1,1016,1.21,0.02,0.02,-1000,-1000,,
11/06/2009,07:20,9.9,280,11.8,12.2,16.1,1016.1,1.21,0.01,0.01,-1000,-1000,,
11/06/2009,07:25,9.9,280,11.8,12.3,16.1,1016.1,1.21,0.01,0.04,-1000,-1000,,
11/06/2009,07:30,8.2,286,12.3,12.4,16.1,1016.2,1.22,0.03,0.03,-1000,-1000,,
11/06/2009,07:35,9.9,287,12.6,12.4,16.1,1016.3,1.23,0.03,0.04,-1000,-1000,,
11/06/2009,07:40,7,272,11,12.6,16.1,1016.3,1.25,0.04,0.03,-1000,-1000,,
11/06/2009,07:45,8.6,272,11,12.7,16.1,1016.4,1.28,0.02,0.02,-1000,-1000,,
11/06/2009,07:50,10.5,293,12.8,12.9,16.1,1016.5,1.31,0.03,0.04,-1000,-1000,,
11/06/2009,07:55,10.3,296,13.3,13.1,16,1016.5,1.33,0.05,0.06,-1000,-1000,,
11/06/2009,08:00,9.4,296,13.3,13.1,16,1016.6,1.36,0.05,0.05,-1000,-1000,,
11/06/2009,08:05,9.4,299,11.1,13.2,16,1016.6,1.41,0.03,0.04,-1000,-1000,,
11/06/2009,08:10,8.3,303,11.1,13.4,16,1016.7,1.46,0.04,0.03,-1000,-1000,,
11/06/2009,08:15,8.6,302,11.8,13.6,16.1,1016.8,1.5,0.02,0.02,-1000,-1000,,
11/06/2009,08:20,9.2,308,12.2,13.8,16.2,1016.9,1.55,0.02,0.02,-1000,-1000,,
11/06/2009,08:25,9.7,319,12.5,13.8,16.2,1017,1.6,0.02,0.04,-1000,-1000,,
11/06/2009,08:30,9.8,319,12.5,13.6,16.3,1017,1.64,0.03,0.04,-1000,-1000,,
11/06/2009,08:35,10.2,319,12.5,13.7,16.3,1017.1,1.68,0.03,0.04,-1000,-1000,,
11/06/2009,08:40,9.8,304,13.3,13.8,16.2,1017.1,1.71,0.04,0.04,-1000,-1000,,
11/06/2009,08:45,10.5,304,13.3,13.7,16.1,1017.4,1.73,0.03,0.03,-1000,-1000,,
11/06/2009,08:50,8,316,13.3,13.9,16.1,1017.4,1.76,0.03,0.03,-1000,-1000,,
11/06/2009,08:55,7.9,301,10.5,14,16,1017.4,1.79,0.03,0.03,-1000,-1000,,
11/06/2009,09:00,8.1,301,10.5,14,16,1017.5,1.82,0.04,0.05,-1000,-1000,,
11/06/2009,09:05,7.5,305,9.2,14.1,16,1017.6,1.86,0.02,0.02,-1000,-1000,,
11/06/2009,09:10,7.3,305,9.2,14.2,16,1017.6,1.89,0.02,0.04,-1000,-1000,,
11/06/2009,09:15,7.1,300,9.9,14.1,16,1017.7,1.92,0.02,0.02,-1000,-1000,,
11/06/2009,09:20,6.9,302,9.4,14.3,16,1017.7,1.95,0.02,0.02,-1000,-1000,,
11/06/2009,09:25,6.7,302,9.4,14.4,16,1017.7,1.98,0.02,0.03,-1000,-1000,,
11/06/2009,09:30,7.7,291,10.7,14.5,16,1017.7,2.02,0.04,0.06,-1000,-1000,,
11/06/2009,09:35,8.1,301,9.6,14.6,16,1017.8,2.05,0.03,0.04,-1000,-1000,,
11/06/2009,09:40,6.8,249,9,14.6,16,1017.8,2.07,0.03,0.03,-1000,-1000,,
11/06/2009,09:45,5.9,273,7.1,14.9,16,1017.9,2.1,0.02,0.02,-1000,-1000,,
11/06/2009,09:50,5.7,273,7.1,14.9,16,1017.8,2.11,0.02,0.03,-1000,-1000,,
11/06/2009,09:55,7.2,271,12.9,14.9,16,1017.8,2.14,0.02,0.03,-1000,-1000,,
11/06/2009,10:00,10,279,11.9,15.1,16,1017.8,2.16,0.03,0.03,-1000,-1000,,
11/06/2009,10:05,9.5,276,14.8,15.2,16.1,1017.7,2.17,0.02,0.02,-1000,-1000,,
11/06/2009,10:10,10.1,272,13.3,15.4,16,1017.8,2.18,0.02,0.03,-1000,-1000,,
11/06/2009,10:15,8.7,272,13.3,15.5,16.1,1017.8,2.19,0.02,0.02,-1000,-1000,,
11/06/2009,10:20,8.1,272,13.3,15.5,16,1017.9,2.2,0.02,0.03,-1000,-1000,,
11/06/2009,10:25,9.1,281,13.2,15.7,16,1017.8,2.22,0.03,0.03,-1000,-1000,,
11/06/2009,10:30,9.9,281,13.2,15.8,16,1017.9,2.23,0.03,0.05,-1000,-1000,,
11/06/2009,10:35,7.4,265,9.7,15.8,16.1,1018,2.25,0.02,0.04,-1000,-1000,,
11/06/2009,10:40,7.2,265,9.2,15.9,16.1,1018,2.27,0.03,0.03,-1000,-1000,,
11/06/2009,10:45,8.4,278,12.1,16,16.1,1018,2.29,0.01,0.02,-1000,-1000,,
11/06/2009,10:50,11.5,276,16.5,16,16.1,1018.1,2.32,0.03,0.03,-1000,-1000,,
11/06/2009,10:55,13.4,276,16.5,16,16.1,1018,2.34,0.03,0.03,-1000,-1000,,
11/06/2009,11:00,12.5,279,18.2,16.1,16.1,1018.2,2.39,0.03,0.03,-1000,-1000,,
11/06/2009,11:05,10.5,279,18.2,16.1,16.1,1018.3,2.41,0.02,0.03,-1000,-1000,,
11/06/2009,11:10,7.3,262,11.1,15.9,16.1,1018.4,2.46,0.04,0.04,-1000,-1000,,
11/06/2009,11:15,12.1,236,18.3,15.4,16.1,1018.3,2.51,0.03,0.02,-1000,-1000,,
11/06/2009,11:20,14.4,231,17.7,15.6,16.1,1018.2,2.55,0.02,0.03,-1000,-1000,,
11/06/2009,11:25,13.6,231,17.7,15.8,16.1,1018.1,2.59,0.02,0.02,-1000,-1000,,
11/06/2009,11:30,15.4,231,17.7,15.7,16.1,1018.2,2.64,0.03,0.05,-1000,-1000,,
11/06/2009,11:35,17,238,18.6,15.5,16.1,1018.3,2.69,0.04,0.05,-1000,-1000,,
11/06/2009,11:40,15.3,238,17.7,15.5,16.1,1018.3,2.76,0.04,0.04,-1000,-1000,,
11/06/2009,11:45,15.6,238,17.7,15.5,16.1,1018.3,2.8,0.03,0.03,-1000,-1000,,
11/06/2009,11:50,15.8,236,20.5,15.6,16.1,1018.3,2.88,0.03,0.03,-1000,-1000,,
11/06/2009,11:55,16.2,236,20,15.4,16,1018.5,2.94,0.02,0.03,-1000,-1000,,
11/06/2009,12:00,16.8,237,19.3,15.4,16,1018.5,3.01,0.03,0.04,-1000,-1000,,
11/06/2009,12:05,17.6,237,19.3,15.3,16,1018.3,3.06,0.03,0.04,-1000,-1000,,
11/06/2009,12:10,17.7,239,19.4,15.2,16,1018.5,3.14,0.04,0.04,-1000,-1000,,
11/06/2009,12:15,18.3,239,21.2,14.9,16,1018.5,3.21,0.03,0.03,-1000,-1000,,
11/06/2009,12:20,17.6,239,21.2,15,16,1018.5,3.27,0.02,0.03,-1000,-1000,,
11/06/2009,12:25,17.6,239,21.2,14.9,16,1018.5,3.34,0.03,0.04,-1000,-1000,,
11/06/2009,12:30,18.1,241,20.6,14.8,16,N/A,3.42,0.03,0.04,-1000,-1000,,
11/06/2009,12:35,18.2,236,21.1,15,16,1018.5,3.49,0.03,0.03,-1000,-1000,,
11/06/2009,12:40,17.6,242,21.9,14.8,16,1018.6,3.56,0.03,0.05,-1000,-1000,,
11/06/2009,12:45,19.6,248,23.7,14.7,16,1018.5,3.63,0.03,0.03,-1000,-1000,,
11/06/2009,12:50,21.4,248,23.7,14.7,16,1018.3,3.68,0.02,0.03,-1000,-1000,,
11/06/2009,12:55,21.3,248,23.7,14.7,16,1018.5,3.73,0.02,0.03,-1000,-1000,,
11/06/2009,13:00,21.1,241,24.7,14.6,16,1018.7,3.81,0.04,0.05,-1000,-1000,,
11/06/2009,13:05,19.4,233,22.7,14.6,16,1018.8,3.86,0.03,0.03,-1000,-1000,,
11/06/2009,13:10,18.4,233,22.7,14.8,16,1019,3.91,0.04,0.05,-1000,-1000,,
11/06/2009,13:15,18.1,237,21.3,14.8,16,1018.7,3.96,0.04,0.05,-1000,-1000,,
11/06/2009,13:20,18.2,237,21.3,14.9,16,1018.8,3.98,0.04,0.06,-1000,-1000,,
11/06/2009,13:25,17.7,238,20.1,15.1,16,1018.7,4.02,0.05,0.06,-1000,-1000,,
11/06/2009,13:30,17.5,238,20.1,15.2,16,1018.7,4.05,0.05,0.05,-1000,-1000,,
11/06/2009,13:35,18.2,238,20.9,15.3,16,1018.7,4.08,0.03,0.04,-1000,-1000,,
11/06/2009,13:40,19.3,238,20.9,15.2,16,1018.9,4.1,0.03,0.04,-1000,-1000,,
11/06/2009,13:45,20.7,238,23.2,15.2,16,1018.5,4.13,0.05,0.05,-1000,-1000,,
11/06/2009,13:50,21.8,234,26.1,14.8,16,1018.5,4.15,0.04,0.05,-1000,-1000,,
11/06/2009,13:55,22.7,236,27.6,14.6,16,1018.8,4.16,0.04,0.04,-1000,-1000,,
11/06/2009,14:00,19.5,241,22.3,14.8,16.1,1018.9,4.18,0.03,0.04,-1000,-1000,,
11/06/2009,14:05,19.2,241,22.3,15.2,16.1,1018.9,4.19,0.03,0.04,-1000,-1000,,
11/06/2009,14:10,18.8,245,22.7,15.2,16.1,1019,4.2,0.04,0.03,-1000,-1000,,
11/06/2009,14:15,18.7,245,22.7,15.3,16.1,1019,4.2,0.03,0.04,-1000,-1000,,
11/06/2009,14:20,18.2,247,22.4,15.1,16.2,1019,4.21,0.03,0.03,-1000,-1000,,
11/06/2009,14:25,18.3,247,22.4,15,16.2,1019.3,4.22,0.03,0.04,-1000,-1000,,
11/06/2009,14:30,18.3,252,22.7,15.1,16.2,1019.2,4.22,0.04,0.04,-1000,-1000,,
11/06/2009,14:35,17.5,251,21.2,15,16.2,1019.2,4.23,0.03,0.03,-1000,-1000,,
11/06/2009,14:40,17.5,250,21.3,15,16.2,1019.2,4.22,0.03,0.04,-1000,-1000,,
11/06/2009,14:45,17.2,250,21.3,15.1,16.2,1019.3,4.22,0.04,0.05,-1000,-1000,,
11/06/2009,14:50,18.9,248,21.3,14.8,16.2,1019.3,4.22,0.03,0.03,-1000,-1000,,
11/06/2009,14:55,15.3,275,25.1,13.7,16.2,1020,4.21,0.03,0.03,-1000,-1000,,
11/06/2009,15:00,11.8,275,25.1,13.6,16.2,1020,4.21,0.03,0.03,-1000,-1000,,
11/06/2009,15:05,6.3,303,9.2,14.1,16.2,1019.7,4.21,0.05,0.05,-1000,-1000,,
11/06/2009,15:10,4.2,349,9.4,14.4,16.2,1019.7,4.21,0.04,0.03,-1000,-1000,,
11/06/2009,15:15,4,349,9.4,14.4,16.1,1019.7,4.21,0.03,0.03,-1000,-1000,,
11/06/2009,15:20,6.9,312,13,14.8,16.1,1019.6,4.21,0.03,0.03,-1000,-1000,,
11/06/2009,15:25,13.8,264,17.3,14.8,16.1,1019.5,4.21,0.03,0.03,-1000,-1000,,
11/06/2009,15:30,13.5,264,17.3,15,16.1,1019.4,4.22,0.03,0.04,-1000,-1000,,
11/06/2009,15:35,13.8,254,18.1,15.1,16.1,1019.3,4.22,0.03,0.03,-1000,-1000,,
11/06/2009,15:40,14.3,254,18.1,15.2,16.1,1019.2,4.21,0.02,0.03,-1000,-1000,,
11/06/2009,15:45,15.6,251,19.9,15.2,16.1,1019.3,4.21,0.04,0.04,-1000,-1000,,
11/06/2009,15:50,14.7,254,18.5,15.2,16.1,1019.3,4.21,0.03,0.03,-1000,-1000,,
11/06/2009,15:55,15.9,254,18.5,15.1,16.1,1019.2,4.2,0.03,0.03,-1000,-1000,,
11/06/2009,16:00,15.9,255,20,15.2,16.1,1019.3,4.19,0.02,0.04,-1000,-1000,,
11/06/2009,16:05,18.9,246,23.1,15.3,16.1,1018.9,4.18,0.04,0.04,-1000,-1000,,
11/06/2009,16:10,18.4,246,23.1,15.3,16.1,1019.2,4.16,0.04,0.04,-1000,-1000,,
11/06/2009,16:15,19.5,238,24.6,15.4,16.1,1018.8,4.13,0.04,0.04,-1000,-1000,,
11/06/2009,16:20,20.2,238,24.6,15.5,16.1,1018.8,4.11,0.04,0.05,-1000,-1000,,
11/06/2009,16:25,21.9,234,26,15.4,16,1018.5,4.09,0.05,0.06,-1000,-1000,,
11/06/2009,16:30,23.1,234,26,15.4,16,1018.8,4.06,0.05,0.05,-1000,-1000,,
11/06/2009,16:35,22.5,234,28.6,15.4,16,1018.6,4.03,0.04,0.05,-1000,-1000,,
11/06/2009,16:40,22.4,235,27.8,15.2,16,1018.5,3.96,0.05,0.06,-1000,-1000,,
11/06/2009,16:45,22.1,237,27.9,15.2,16,N/A,3.92,0.06,0.07,-1000,-1000,,
11/06/2009,16:50,21.6,235,24.8,15.2,16,1018.8,3.87,0.06,0.07,-1000,-1000,,
11/06/2009,16:55,22,235,24.8,15.1,16,1018.7,3.83,0.06,0.08,-1000,-1000,,
11/06/2009,17:00,23.4,236,28.5,15.1,16,1018.6,3.76,0.07,0.08,-1000,-1000,,
11/06/2009,17:05,21.8,238,25.4,15.1,16,1018.7,3.68,0.07,0.08,-1000,-1000,,
11/06/2009,17:10,20.8,236,24.2,15.3,16,1018.9,3.6,0.06,0.07,-1000,-1000,,
11/06/2009,17:15,20.8,236,24.2,15.4,16,1019,3.51,0.07,0.11,-1000,-1000,,
11/06/2009,17:20,21.7,236,24.2,15.3,16,1018.7,3.45,0.1,0.11,-1000,-1000,,
11/06/2009,17:25,21.1,236,25.4,15.3,16,1019,3.35,0.08,0.08,-1000,-1000,,
11/06/2009,17:30,20.6,236,25.4,15.3,16,1018.9,3.27,0.08,0.1,-1000,-1000,,
11/06/2009,17:35,21.4,238,24.5,15.3,16,1018.8,3.15,0.07,0.08,-1000,-1000,,
11/06/2009,17:40,20.7,238,24.5,15.3,16,1018.8,3.06,0.08,0.09,-1000,-1000,,
11/06/2009,17:45,20.5,242,24.5,15.4,16,1018.9,2.92,0.07,0.08,-1000,-1000,,
11/06/2009,17:50,20.6,242,24.5,15.3,16,1018.7,2.85,0.07,0.08,-1000,-1000,,
11/06/2009,17:55,21.2,242,24.5,15.5,16,1018.8,2.76,0.08,0.08,-1000,-1000,,
11/06/2009,18:00,21,242,24.5,15.4,16,N/A,2.65,0.08,0.09,-1000,-1000,,
11/06/2009,18:05,21.5,239,25.4,15.5,16,1019,2.51,0.07,0.08,-1000,-1000,,
11/06/2009,18:10,22,239,25.4,15.4,16,1018.5,2.44,0.07,0.07,-1000,-1000,,
11/06/2009,18:15,21.3,238,24.7,15.4,16,1018.8,2.33,0.07,0.09,-1000,-1000,,
11/06/2009,18:20,21.6,238,24.7,15.3,16.1,1018.9,2.26,0.08,0.09,-1000,-1000,,
11/06/2009,18:25,21.8,240,26.5,15.3,16.1,1018.8,2.15,0.07,0.08,-1000,-1000,,
11/06/2009,18:30,23.5,238,27,15.3,16.2,1018.9,2.1,0.07,0.07,-1000,-1000,,
11/06/2009,18:35,23.1,238,27,15.3,16.3,1018.9,2.03,0.06,0.06,-1000,-1000,,
11/06/2009,18:40,22.4,237,26.5,15.3,16.3,1019.1,1.94,0.06,0.08,-1000,-1000,,
11/06/2009,18:45,21.9,237,25.7,15.3,16.3,1019,1.87,0.06,0.07,-1000,-1000,,
11/06/2009,18:50,22.3,237,25.7,15.3,16.3,1018.7,1.82,0.07,0.09,-1000,-1000,,
11/06/2009,18:55,22.1,237,25.2,15.4,16.4,1019,1.74,0.07,0.08,-1000,-1000,,
11/06/2009,19:00,21.7,237,25.2,15.4,16.4,1019.1,1.7,0.09,0.1,-1000,-1000,,
11/06/2009,19:05,21.4,238,24.3,15.4,16.4,1019.2,1.65,0.09,0.09,-1000,-1000,,
11/06/2009,19:10,21.3,235,24.8,15.5,16.4,1019.3,1.6,0.09,0.09,-1000,-1000,,
11/06/2009,19:15,20.6,234,23.6,15.4,16.4,1019.2,1.56,0.09,0.09,-1000,-1000,,
11/06/2009,19:20,21.7,234,23.6,15.4,16.4,N/A,1.54,0.07,0.07,-1000,-1000,,
11/06/2009,19:25,21.6,235,25.5,15.4,16.4,1019,1.52,0.07,0.08,-1000,-1000,,
11/06/2009,19:30,21.6,235,25.5,15.4,16.4,1019.2,1.52,0.09,0.1,-1000,-1000,,
11/06/2009,19:35,21.5,235,25.5,15.3,16.4,1019,1.5,0.09,0.09,-1000,-1000,,
11/06/2009,19:40,21.6,235,24.6,15.3,16.3,1019.1,1.49,0.08,0.08,-1000,-1000,,
11/06/2009,19:45,21.6,235,24.6,15.3,16.3,1019.4,1.49,0.09,0.09,-1000,-1000,,
11/06/2009,19:50,22.1,235,24.6,15.2,16.2,1019.2,1.5,0.08,0.09,-1000,-1000,,
11/06/2009,19:55,22,237,24.9,15.2,16.2,1019.1,1.51,0.09,0.09,-1000,-1000,,
11/06/2009,20:00,21.9,237,24.9,15.1,16.2,1019.3,1.52,0.08,0.09,-1000,-1000,,
11/06/2009,20:05,21.6,236,25.6,15.1,16.2,1019.3,1.55,0.07,0.08,-1000,-1000,,
11/06/2009,20:10,21.3,236,25.6,14.9,16.2,1019.5,1.58,0.08,0.08,-1000,-1000,,
11/06/2009,20:15,21.9,235,24.5,14.8,16.2,1019.2,1.61,0.08,0.09,-1000,-1000,,
11/06/2009,20:20,22,235,24.6,14.7,16.3,1019.5,1.66,0.06,0.07,-1000,-1000,,
11/06/2009,20:25,21.8,235,24.6,14.7,16.3,1019.4,1.68,0.06,0.06,-1000,-1000,,
11/06/2009,20:30,20.4,235,23.3,14.7,16.3,N/A,1.72,0.05,0.06,-1000,-1000,,
11/06/2009,20:35,19.7,235,22.1,14.6,16.3,1019.7,1.75,0.05,0.06,-1000,-1000,,
11/06/2009,20:40,20.1,231,23.2,14.7,16.2,1019.7,1.78,0.04,0.04,-1000,-1000,,
11/06/2009,20:45,20.4,233,23.4,14.7,16.2,1019.6,1.81,0.04,0.04,-1000,-1000,,
11/06/2009,20:50,20.5,233,23.4,14.7,16.1,1019.5,1.83,0.03,0.04,-1000,-1000,,
11/06/2009,20:55,21.8,231,24.9,14.6,16.1,N/A,1.87,0.03,0.03,-1000,-1000,,
11/06/2009,21:00,21.2,232,24.5,14.6,16.1,1019.5,1.9,0.03,0.03,-1000,-1000,,
11/06/2009,21:05,20.6,232,24.5,14.7,16.1,1019.7,1.92,0.03,0.06,-1000,-1000,,
11/06/2009,21:10,20.2,232,23.3,14.8,16.1,N/A,1.95,0.04,0.03,-1000,-1000,,
11/06/2009,21:15,18.9,232,23.3,14.7,16.1,1020,1.99,0.02,0.03,-1000,-1000,,
11/06/2009,21:20,15.4,232,23,14.8,16,1019.9,2.02,0.02,0.03,-1000,-1000,,
11/06/2009,21:25,13.9,232,23,14.8,16,1019.9,2.04,0.02,0.03,-1000,-1000,,
11/06/2009,21:30,12.9,228,17.8,14.8,16,1020,2.08,0.03,0.04,-1000,-1000,,
11/06/2009,21:35,13.4,228,18.9,14.8,16,1020.2,2.11,0.02,0.03,-1000,-1000,,
11/06/2009,21:40,14.4,229,18.6,14.8,16,1020.3,2.14,0.02,0.02,-1000,-1000,,
11/06/2009,21:45,15.9,232,18.8,14.8,16,1020.5,2.17,0.02,0.02,-1000,-1000,,
11/06/2009,21:50,16,232,18.8,14.8,16.1,1020.4,2.2,0.02,0.03,-1000,-1000,,
11/06/2009,21:55,16.5,232,20.1,14.8,16.1,1020.5,2.23,0.02,0.02,-1000,-1000,,
11/06/2009,22:00,15.5,233,19.4,14.7,16.1,1020.5,2.26,0.02,0.02,-1000,-1000,,
11/06/2009,22:05,14.7,233,19.4,14.8,16.1,1020.5,2.27,0.02,0.03,-1000,-1000,,
11/06/2009,22:10,10.6,234,16.1,14.6,16.1,1020.6,2.3,0.03,0.03,-1000,-1000,,
11/06/2009,22:15,8.3,232,14.6,14.7,16.1,1020.6,2.31,0.02,0.02,-1000,-1000,,
11/06/2009,22:20,11.2,237,15.7,14.6,16.2,1020.6,2.32,0.02,0.03,-1000,-1000,,
11/06/2009,22:25,12,237,15.7,14.7,16.2,1020.6,2.33,0.02,0.03,-1000,-1000,,
11/06/2009,22:30,9.6,237,15.7,14.7,16.2,1020.7,2.35,0.03,0.03,-1000,-1000,,
11/06/2009,22:35,7.4,237,15.7,14.6,16.2,1020.6,2.36,0.02,0.02,-1000,-1000,,
11/06/2009,22:40,8.3,237,15.7,14.6,16.2,1020.6,2.37,0.02,0.02,-1000,-1000,,
11/06/2009,22:45,5.8,234,11,14.6,16.1,1020.6,2.39,0.02,0.02,-1000,-1000,,
11/06/2009,22:50,8.4,237,12.4,14.5,16.2,1020.6,2.41,0.02,0.03,-1000,-1000,,
11/06/2009,22:55,8.2,236,11.7,14.5,16.1,N/A,2.43,0.03,0.03,-1000,-1000,,
11/06/2009,23:00,5.4,228,10.2,14.4,16.1,1020.7,2.45,0.02,0.02,-1000,-1000,,
11/06/2009,23:05,5.4,228,10.2,14.4,16.1,1020.8,2.48,0.02,0.03,-1000,-1000,,
11/06/2009,23:10,3.6,233,9.8,14.1,16.1,1020.8,2.51,0.02,0.03,-1000,-1000,,
11/06/2009,23:15,5.1,237,10.6,14.1,16.1,1020.8,2.54,0.02,0.02,-1000,-1000,,
11/06/2009,23:20,4,237,10.6,14,16.1,1020.9,2.56,0.01,0.01,-1000,-1000,,
11/06/2009,23:25,2,120,6.9,13.8,16.1,1020.9,2.61,0.02,0.03,-1000,-1000,,
11/06/2009,23:30,1.9,75,5.2,13.7,16.1,1020.8,2.64,0.03,0.03,-1000,-1000,,
11/06/2009,23:35,1.9,78,3,13.7,16.1,1021,2.68,0.01,0.02,-1000,-1000,,
11/06/2009,23:40,1.7,78,3,13.9,16.1,1021,2.71,0.01,0.01,-1000,-1000,,
11/06/2009,23:45,2,78,3,13.9,16.1,1021.1,2.75,0.01,0.02,-1000,-1000,,
11/06/2009,23:50,1.5,58,7.1,13.8,16.1,1021.1,2.8,0.02,0.02,-1000,-1000,,
11/06/2009,23:55,3,58,7.1,13.9,16.1,1021,2.84,0.02,0.03,-1000,-1000,,
